Location: ????????
(55.3939°N, 37.4780°E)
Time: 07:10:30
(UTC+00:00)

BREEZE-M R/B - Pass Details

Date: 14 April 2026
Orbit: 1039 x 14819 km, 50.7° (Epoch: 10 May)

Event Time Altitude Azimuth Distance (km) Brightness Sun altitude
Rises 20:52:10 0° 247° (WSW) 6,573 8.2 -24.5°
Reaches altitude 10° 20:57:16 10° 244° (WSW) 4,476 7.2 -24.6°
Maximum altitude 21:06:03 55° 168° (SSE) 1,372 4.3 -24.8°
Drops below altitude 10° 21:11:34 10° 91° (E) 2,857 6.4 -24.8°
Sets 21:14:02 0° 86° (E) 3,945 7.2 -24.9°
